contact:dominique.lefevre@mio.osupytheas.fr, maurice.libes@osupytheas.fr, didier.mallarino@osupytheas.fr
Project:EMSO http://www.emso-fr.org/EMSO-France
Depth: 2436.0 m
Title:EMSO Ligure Ouest : Data MII capteur MICROCAT
DateTime_Computer,Latitude,Longitude,Temperature,Conductivity,Pressure,DateTime_Instrument
DateTime_Computer,Latitude,Longitude,degC,S m-1,dbar,DateTime_Instrument
2023-05-19T00:02:42Z,42.805,6.029,13.3017,4.60074,2470.646,2023-5-19T02:04:53Z
2023-05-19T00:05:45Z,42.805,6.029,13.3015,4.60074,2470.646,2023-5-19T02:07:56Z
2023-05-19T00:08:48Z,42.805,6.029,13.3017,4.60072,2470.646,2023-5-19T02:11:00Z
2023-05-19T00:11:51Z,42.805,6.029,13.3019,4.60074,2470.661,2023-5-19T02:14:03Z
2023-05-19T00:14:54Z,42.805,6.029,13.3017,4.60074,2470.67,2023-5-19T02:17:06Z
2023-05-19T00:17:57Z,42.805,6.029,13.3015,4.60074,2470.6,2023-5-19T02:20:09Z
2023-05-19T00:21:00Z,42.805,6.029,13.3015,4.60072,2470.646,2023-5-19T02:23:12Z
2023-05-19T00:24:03Z,42.805,6.029,13.3018,4.60072,2470.67,2023-5-19T02:26:15Z
2023-05-19T00:27:06Z,42.805,6.029,13.3015,4.60072,2470.661,2023-5-19T02:29:18Z
2023-05-19T00:30:09Z,42.805,6.029,13.3018,4.60072,2470.61,2023-5-19T02:32:21Z
2023-05-19T00:33:12Z,42.805,6.029,13.3014,4.60072,2470.646,2023-5-19T02:35:24Z
2023-05-19T00:36:15Z,42.805,6.029,13.3019,4.60073,2470.624,2023-5-19T02:38:27Z
2023-05-19T00:39:19Z,42.805,6.029,13.3018,4.60074,2470.661,2023-5-19T02:41:30Z
2023-05-19T00:42:22Z,42.805,6.029,13.3015,4.60072,2470.646,2023-5-19T02:44:33Z
2023-05-19T00:45:25Z,42.805,6.029,13.3017,4.60072,2470.624,2023-5-19T02:47:37Z
2023-05-19T00:48:28Z,42.805,6.029,13.3015,4.60072,2470.661,2023-5-19T02:50:40Z
2023-05-19T00:51:31Z,42.805,6.029,13.3019,4.60073,2470.637,2023-5-19T02:53:43Z
2023-05-19T00:54:34Z,42.805,6.029,13.3015,4.60074,2470.637,2023-5-19T02:56:46Z
2023-05-19T00:57:37Z,42.805,6.029,13.3020,4.60072,2470.637,2023-5-19T02:59:49Z
2023-05-19T01:00:40Z,42.805,6.029,13.3019,4.60073,2470.624,2023-5-19T03:02:52Z
2023-05-19T01:03:43Z,42.805,6.029,13.3018,4.60072,2470.624,2023-5-19T03:05:55Z
2023-05-19T01:06:46Z,42.805,6.029,13.3016,4.60073,2470.624,2023-5-19T03:08:58Z
2023-05-19T01:09:49Z,42.805,6.029,13.3015,4.60072,2470.624,2023-5-19T03:12:01Z
2023-05-19T01:12:52Z,42.805,6.029,13.3018,4.60074,2470.661,2023-5-19T03:15:04Z
2023-05-19T01:15:55Z,42.805,6.029,13.3019,4.60072,2470.624,2023-5-19T03:18:07Z
2023-05-19T01:18:59Z,42.805,6.029,13.3019,4.60074,2470.624,2023-5-19T03:21:10Z
2023-05-19T01:22:02Z,42.805,6.029,13.3018,4.60073,2470.6,2023-5-19T03:24:13Z
2023-05-19T01:25:05Z,42.805,6.029,13.3019,4.60074,2470.624,2023-5-19T03:27:16Z
2023-05-19T01:28:08Z,42.805,6.029,13.3014,4.60074,2470.646,2023-5-19T03:30:20Z
2023-05-19T01:31:11Z,42.805,6.029,13.3021,4.60075,2470.624,2023-5-19T03:33:23Z
2023-05-19T01:34:14Z,42.805,6.029,13.3020,4.60072,2470.637,2023-5-19T03:36:26Z
2023-05-19T01:37:17Z,42.805,6.029,13.3015,4.60073,2470.624,2023-5-19T03:39:29Z
2023-05-19T01:40:20Z,42.805,6.029,13.3019,4.60075,2470.646,2023-5-19T03:42:32Z
2023-05-19T01:43:23Z,42.805,6.029,13.3017,4.60073,2470.637,2023-5-19T03:45:35Z
2023-05-19T01:46:26Z,42.805,6.029,13.3016,4.60071,2470.563,2023-5-19T03:48:38Z
2023-05-19T01:49:29Z,42.805,6.029,13.3017,4.60073,2470.624,2023-5-19T03:51:41Z
2023-05-19T01:52:32Z,42.805,6.029,13.3015,4.60072,2470.624,2023-5-19T03:54:44Z
2023-05-19T01:55:36Z,42.805,6.029,13.3019,4.60072,2470.6,2023-5-19T03:57:47Z
2023-05-19T01:58:39Z,42.805,6.029,13.3017,4.60074,2470.646,2023-5-19T04:00:50Z
2023-05-19T02:01:42Z,42.805,6.029,13.3015,4.60073,2470.624,2023-5-19T04:03:53Z
2023-05-19T02:04:45Z,42.805,6.029,13.3016,4.60072,2470.624,2023-5-19T04:06:57Z
2023-05-19T02:07:48Z,42.805,6.029,13.3013,4.60073,2470.624,2023-5-19T04:10:00Z
2023-05-19T02:10:51Z,42.805,6.029,13.3018,4.60073,2470.661,2023-5-19T04:13:03Z
2023-05-19T02:13:54Z,42.805,6.029,13.3022,4.60079,2470.646,2023-5-19T04:16:06Z
2023-05-19T02:16:57Z,42.805,6.029,13.3015,4.60074,2470.624,2023-5-19T04:19:09Z
2023-05-19T02:20:00Z,42.805,6.029,13.3016,4.60072,2470.6,2023-5-19T04:22:12Z
2023-05-19T02:23:03Z,42.805,6.029,13.3015,4.60073,2470.6,2023-5-19T04:25:15Z
2023-05-19T02:26:06Z,42.805,6.029,13.3014,4.60073,2470.637,2023-5-19T04:28:18Z
2023-05-19T02:29:09Z,42.805,6.029,13.3019,4.60073,2470.624,2023-5-19T04:31:21Z
2023-05-19T02:32:12Z,42.805,6.029,13.3019,4.60073,2470.624,2023-5-19T04:34:24Z
2023-05-19T02:35:16Z,42.805,6.029,13.3017,4.60073,2470.661,2023-5-19T04:37:27Z
2023-05-19T02:38:19Z,42.805,6.029,13.3018,4.60072,2470.624,2023-5-19T04:40:30Z
2023-05-19T02:41:22Z,42.805,6.029,13.3022,4.60073,2470.624,2023-5-19T04:43:33Z
2023-05-19T02:44:25Z,42.805,6.029,13.3019,4.60074,2470.624,2023-5-19T04:46:37Z
2023-05-19T02:47:28Z,42.805,6.029,13.3016,4.60074,2470.637,2023-5-19T04:49:40Z
2023-05-19T02:50:31Z,42.805,6.029,13.3018,4.60072,2470.646,2023-5-19T04:52:43Z
2023-05-19T02:53:34Z,42.805,6.029,13.3013,4.60072,2470.637,2023-5-19T04:55:46Z
2023-05-19T02:56:37Z,42.805,6.029,13.3017,4.60073,2470.656,2023-5-19T04:58:49Z
2023-05-19T02:59:40Z,42.805,6.029,13.3020,4.60072,2470.661,2023-5-19T05:01:52Z
2023-05-19T03:02:43Z,42.805,6.029,13.3015,4.60074,2470.646,2023-5-19T05:04:55Z
2023-05-19T03:05:46Z,42.805,6.029,13.3019,4.60074,2470.67,2023-5-19T05:07:58Z
2023-05-19T03:08:49Z,42.805,6.029,13.3013,4.60072,2470.646,2023-5-19T05:11:01Z
2023-05-19T03:11:52Z,42.805,6.029,13.3019,4.60073,2470.661,2023-5-19T05:14:04Z
2023-05-19T03:14:56Z,42.805,6.029,13.3017,4.60072,2470.67,2023-5-19T05:17:07Z
2023-05-19T03:17:59Z,42.805,6.029,13.3018,4.60074,2470.684,2023-5-19T05:20:10Z
2023-05-19T03:21:02Z,42.805,6.029,13.3017,4.60072,2470.646,2023-5-19T05:23:14Z
2023-05-19T03:24:05Z,42.805,6.029,13.3016,4.60073,2470.693,2023-5-19T05:26:17Z
2023-05-19T03:27:08Z,42.805,6.029,13.3015,4.60072,2470.67,2023-5-19T05:29:20Z
2023-05-19T03:30:11Z,42.805,6.029,13.3015,4.60072,2470.693,2023-5-19T05:32:23Z
2023-05-19T03:33:14Z,42.805,6.029,13.3015,4.60072,2470.646,2023-5-19T05:35:26Z
2023-05-19T03:36:17Z,42.805,6.029,13.3019,4.60072,2470.67,2023-5-19T05:38:29Z
2023-05-19T03:39:20Z,42.805,6.029,13.3018,4.60073,2470.646,2023-5-19T05:41:32Z
2023-05-19T03:42:23Z,42.805,6.029,13.3018,4.60072,2470.67,2023-5-19T05:44:35Z
2023-05-19T03:45:26Z,42.805,6.029,13.3015,4.60073,2470.646,2023-5-19T05:47:38Z
2023-05-19T03:48:29Z,42.805,6.029,13.3015,4.60073,2470.717,2023-5-19T05:50:41Z
2023-05-19T03:51:32Z,42.805,6.029,13.3016,4.60074,2470.707,2023-5-19T05:53:44Z
2023-05-19T03:54:36Z,42.805,6.029,13.3018,4.60072,2470.707,2023-5-19T05:56:47Z
2023-05-19T03:57:39Z,42.805,6.029,13.3021,4.60072,2470.693,2023-5-19T05:59:50Z
2023-05-19T04:00:42Z,42.805,6.029,13.3017,4.60072,2470.67,2023-5-19T06:02:54Z
2023-05-19T04:03:45Z,42.805,6.029,13.3015,4.60072,2470.707,2023-5-19T06:05:57Z
2023-05-19T04:06:48Z,42.805,6.029,13.3014,4.60072,2470.684,2023-5-19T06:09:00Z
2023-05-19T04:09:51Z,42.805,6.029,13.3021,4.60073,2470.73,2023-5-19T06:12:03Z
2023-05-19T04:12:54Z,42.805,6.029,13.3019,4.60074,2470.684,2023-5-19T06:15:06Z
2023-05-19T04:15:57Z,42.805,6.029,13.3019,4.60073,2470.717,2023-5-19T06:18:09Z
2023-05-19T04:19:00Z,42.805,6.029,13.3016,4.60074,2470.717,2023-5-19T06:21:12Z
2023-05-19T04:22:03Z,42.805,6.029,13.3017,4.60075,2470.717,2023-5-19T06:24:15Z
2023-05-19T04:25:06Z,42.805,6.029,13.3017,4.60075,2470.73,2023-5-19T06:27:18Z
2023-05-19T04:28:09Z,42.805,6.029,13.3015,4.60074,2470.73,2023-5-19T06:30:21Z
2023-05-19T04:31:12Z,42.805,6.029,13.3016,4.60074,2470.74,2023-5-19T06:33:24Z
2023-05-19T04:34:16Z,42.805,6.029,13.3018,4.60074,2470.754,2023-5-19T06:36:27Z
2023-05-19T04:37:19Z,42.805,6.029,13.3017,4.60073,2470.717,2023-5-19T06:39:30Z
2023-05-19T04:40:22Z,42.805,6.029,13.3021,4.60073,2470.74,2023-5-19T06:42:34Z
2023-05-19T04:43:25Z,42.805,6.029,13.3017,4.60072,2470.754,2023-5-19T06:45:37Z
2023-05-19T04:46:28Z,42.805,6.029,13.3018,4.60073,2470.74,2023-5-19T06:48:40Z
2023-05-19T04:49:31Z,42.805,6.029,13.3017,4.60074,2470.717,2023-5-19T06:51:43Z
2023-05-19T04:52:34Z,42.805,6.029,13.3018,4.60072,2470.763,2023-5-19T06:54:46Z
2023-05-19T04:55:37Z,42.805,6.029,13.3015,4.60072,2470.74,2023-5-19T06:57:49Z
2023-05-19T04:58:40Z,42.805,6.029,13.3019,4.60072,2470.74,2023-5-19T07:00:52Z
2023-05-19T05:01:43Z,42.805,6.029,13.3014,4.60072,2470.763,2023-5-19T07:03:55Z
2023-05-19T05:04:46Z,42.805,6.029,13.3017,4.60072,2470.787,2023-5-19T07:06:58Z
2023-05-19T05:07:49Z,42.805,6.029,13.3016,4.60073,2470.777,2023-5-19T07:10:01Z
2023-05-19T05:10:52Z,42.805,6.029,13.3015,4.60072,2470.763,2023-5-19T07:13:04Z
2023-05-19T05:13:56Z,42.805,6.029,13.3013,4.60073,2470.74,2023-5-19T07:16:07Z
2023-05-19T05:16:59Z,42.805,6.029,13.3015,4.60072,2470.74,2023-5-19T07:19:10Z
2023-05-19T05:20:02Z,42.805,6.029,13.3018,4.60072,2470.763,2023-5-19T07:22:14Z
2023-05-19T05:23:05Z,42.805,6.029,13.3019,4.60072,2470.763,2023-5-19T07:25:17Z
2023-05-19T05:26:08Z,42.805,6.029,13.3019,4.60074,2470.777,2023-5-19T07:28:20Z
2023-05-19T05:29:11Z,42.805,6.029,13.3019,4.60073,2470.763,2023-5-19T07:31:23Z
2023-05-19T05:32:14Z,42.805,6.029,13.3018,4.60075,2470.763,2023-5-19T07:34:26Z
2023-05-19T05:35:17Z,42.805,6.029,13.3015,4.60074,2470.763,2023-5-19T07:37:29Z
2023-05-19T05:38:20Z,42.805,6.029,13.3021,4.60072,2470.763,2023-5-19T07:40:32Z
2023-05-19T05:41:23Z,42.805,6.029,13.3014,4.60072,2470.787,2023-5-19T07:43:35Z
2023-05-19T05:44:26Z,42.805,6.029,13.3016,4.60072,2470.81,2023-5-19T07:46:38Z
2023-05-19T05:47:29Z,42.805,6.029,13.3016,4.60075,2470.787,2023-5-19T07:49:41Z
2023-05-19T05:50:32Z,42.805,6.029,13.3018,4.60074,2470.8,2023-5-19T07:52:44Z
2023-05-19T05:53:36Z,42.805,6.029,13.3019,4.60074,2470.763,2023-5-19T07:55:47Z
2023-05-19T05:56:39Z,42.805,6.029,13.3021,4.60075,2470.787,2023-5-19T07:58:50Z
2023-05-19T05:59:42Z,42.805,6.029,13.3015,4.60074,2470.763,2023-5-19T08:01:54Z
2023-05-19T06:02:45Z,42.805,6.029,13.3018,4.60076,2470.8,2023-5-19T08:04:57Z
2023-05-19T06:05:48Z,42.805,6.029,13.3016,4.60072,2470.777,2023-5-19T08:08:00Z
2023-05-19T06:08:51Z,42.805,6.029,13.3019,4.60075,2470.787,2023-5-19T08:11:03Z
2023-05-19T06:11:54Z,42.805,6.029,13.3018,4.60073,2470.787,2023-5-19T08:14:06Z
2023-05-19T06:14:57Z,42.805,6.029,13.3015,4.60073,2470.81,2023-5-19T08:17:09Z
2023-05-19T06:18:00Z,42.805,6.029,13.3019,4.60073,2470.787,2023-5-19T08:20:12Z
2023-05-19T06:21:03Z,42.805,6.029,13.3015,4.60074,2470.787,2023-5-19T08:23:15Z
2023-05-19T06:24:06Z,42.805,6.029,13.3019,4.60074,2470.81,2023-5-19T08:26:18Z
2023-05-19T06:27:09Z,42.805,6.029,13.3019,4.60074,2470.777,2023-5-19T08:29:21Z
2023-05-19T06:30:11Z,42.805,6.029,13.3018,4.60073,2470.787,2023-5-19T08:32:22Z
2023-05-19T06:33:14Z,42.805,6.029,13.3018,4.60072,2470.8,2023-5-19T08:35:25Z
2023-05-19T06:36:17Z,42.805,6.029,13.3019,4.60074,2470.8,2023-5-19T08:38:29Z
2023-05-19T06:39:20Z,42.805,6.029,13.3017,4.60075,2470.787,2023-5-19T08:41:32Z
2023-05-19T06:42:23Z,42.805,6.029,13.3015,4.60073,2470.763,2023-5-19T08:44:35Z
2023-05-19T06:45:26Z,42.805,6.029,13.3015,4.60073,2470.763,2023-5-19T08:47:38Z
2023-05-19T06:48:29Z,42.805,6.029,13.3014,4.60074,2470.763,2023-5-19T08:50:41Z
2023-05-19T06:51:32Z,42.805,6.029,13.3017,4.60075,2470.81,2023-5-19T08:53:44Z
2023-05-19T06:54:35Z,42.805,6.029,13.3020,4.60073,2470.777,2023-5-19T08:56:47Z
2023-05-19T06:57:38Z,42.805,6.029,13.3019,4.60074,2470.763,2023-5-19T08:59:50Z
2023-05-19T07:00:41Z,42.805,6.029,13.3018,4.60075,2470.8,2023-5-19T09:02:53Z
2023-05-19T07:03:45Z,42.805,6.029,13.3019,4.60075,2470.787,2023-5-19T09:05:56Z
2023-05-19T07:06:48Z,42.805,6.029,13.3021,4.60073,2470.787,2023-5-19T09:08:59Z
2023-05-19T07:09:51Z,42.805,6.029,13.3017,4.60074,2470.763,2023-5-19T09:12:02Z
2023-05-19T07:12:54Z,42.805,6.029,13.3016,4.60077,2470.787,2023-5-19T09:15:06Z
2023-05-19T07:15:57Z,42.805,6.029,13.3015,4.60074,2470.787,2023-5-19T09:18:09Z
2023-05-19T07:19:00Z,42.805,6.029,13.3022,4.60073,2470.8,2023-5-19T09:21:12Z
2023-05-19T07:22:03Z,42.805,6.029,13.3021,4.60074,2470.763,2023-5-19T09:24:15Z
2023-05-19T07:25:06Z,42.805,6.029,13.3017,4.60074,2470.74,2023-5-19T09:27:18Z
2023-05-19T07:28:09Z,42.805,6.029,13.3015,4.60073,2470.763,2023-5-19T09:30:21Z
2023-05-19T07:31:12Z,42.805,6.029,13.3021,4.60073,2470.763,2023-5-19T09:33:24Z
2023-05-19T07:34:15Z,42.805,6.029,13.3019,4.60074,2470.8,2023-5-19T09:36:27Z
2023-05-19T07:37:18Z,42.805,6.029,13.3018,4.60074,2470.763,2023-5-19T09:39:30Z
2023-05-19T07:40:22Z,42.805,6.029,13.3019,4.60076,2470.777,2023-5-19T09:42:33Z
2023-05-19T07:43:25Z,42.805,6.029,13.3021,4.60073,2470.787,2023-5-19T09:45:36Z
2023-05-19T07:46:28Z,42.805,6.029,13.3018,4.60074,2470.763,2023-5-19T09:48:39Z
2023-05-19T07:49:31Z,42.805,6.029,13.3014,4.60074,2470.74,2023-5-19T09:51:43Z
2023-05-19T07:52:34Z,42.805,6.029,13.3023,4.60074,2470.763,2023-5-19T09:54:46Z
2023-05-19T07:55:37Z,42.805,6.029,13.3015,4.60074,2470.8,2023-5-19T09:57:49Z
2023-05-19T07:58:40Z,42.805,6.029,13.3017,4.60074,2470.754,2023-5-19T10:00:52Z
2023-05-19T08:01:43Z,42.805,6.029,13.3018,4.60074,2470.787,2023-5-19T10:03:55Z
2023-05-19T08:04:46Z,42.805,6.029,13.3016,4.60074,2470.777,2023-5-19T10:06:58Z
2023-05-19T08:07:49Z,42.805,6.029,13.3020,4.60074,2470.763,2023-5-19T10:10:01Z
2023-05-19T08:10:52Z,42.805,6.029,13.3019,4.60074,2470.754,2023-5-19T10:13:04Z
2023-05-19T08:13:55Z,42.805,6.029,13.3022,4.60075,2470.787,2023-5-19T10:16:07Z
2023-05-19T08:16:59Z,42.805,6.029,13.3018,4.60076,2470.763,2023-5-19T10:19:10Z
2023-05-19T08:20:02Z,42.805,6.029,13.3019,4.60076,2470.763,2023-5-19T10:22:13Z
2023-05-19T08:23:05Z,42.805,6.029,13.3014,4.60076,2470.754,2023-5-19T10:25:17Z
2023-05-19T08:26:08Z,42.805,6.029,13.3020,4.60077,2470.754,2023-5-19T10:28:20Z
2023-05-19T08:29:11Z,42.805,6.029,13.3013,4.60074,2470.74,2023-5-19T10:31:23Z
2023-05-19T08:32:14Z,42.805,6.029,13.3019,4.60073,2470.754,2023-5-19T10:34:26Z
2023-05-19T08:35:17Z,42.805,6.029,13.3018,4.60074,2470.707,2023-5-19T10:37:29Z
2023-05-19T08:38:20Z,42.805,6.029,13.3019,4.60074,2470.717,2023-5-19T10:40:32Z
2023-05-19T08:41:23Z,42.805,6.029,13.3021,4.60074,2470.754,2023-5-19T10:43:35Z
2023-05-19T08:44:26Z,42.805,6.029,13.3016,4.60074,2470.73,2023-5-19T10:46:38Z
2023-05-19T08:47:29Z,42.805,6.029,13.3015,4.60074,2470.717,2023-5-19T10:49:41Z
2023-05-19T08:50:33Z,42.805,6.029,13.3017,4.60076,2470.74,2023-5-19T10:52:44Z
2023-05-19T08:53:36Z,42.805,6.029,13.3022,4.60075,2470.717,2023-5-19T10:55:47Z
2023-05-19T08:56:39Z,42.805,6.029,13.3019,4.60076,2470.73,2023-5-19T10:58:51Z
2023-05-19T08:59:42Z,42.805,6.029,13.3024,4.60074,2470.707,2023-5-19T11:01:54Z
2023-05-19T09:02:45Z,42.805,6.029,13.3016,4.60075,2470.73,2023-5-19T11:04:57Z
2023-05-19T09:05:48Z,42.805,6.029,13.3016,4.60075,2470.717,2023-5-19T11:08:00Z
2023-05-19T09:08:51Z,42.805,6.029,13.3021,4.60074,2470.693,2023-5-19T11:11:03Z
2023-05-19T09:11:54Z,42.805,6.029,13.3016,4.60074,2470.73,2023-5-19T11:14:06Z
2023-05-19T09:14:57Z,42.805,6.029,13.3015,4.60074,2470.693,2023-5-19T11:17:09Z
2023-05-19T09:18:00Z,42.805,6.029,13.3018,4.60074,2470.73,2023-5-19T11:20:12Z
2023-05-19T09:21:03Z,42.805,6.029,13.3019,4.60075,2470.717,2023-5-19T11:23:15Z
2023-05-19T09:24:06Z,42.805,6.029,13.3019,4.60074,2470.67,2023-5-19T11:26:18Z
2023-05-19T09:27:10Z,42.805,6.029,13.3018,4.60074,2470.67,2023-5-19T11:29:21Z
2023-05-19T09:30:13Z,42.805,6.029,13.3017,4.60074,2470.693,2023-5-19T11:32:24Z
2023-05-19T09:33:16Z,42.805,6.029,13.3017,4.60074,2470.67,2023-5-19T11:35:28Z
2023-05-19T09:36:19Z,42.805,6.029,13.3017,4.60075,2470.693,2023-5-19T11:38:31Z
2023-05-19T09:39:22Z,42.805,6.029,13.3019,4.60074,2470.693,2023-5-19T11:41:34Z
2023-05-19T09:42:25Z,42.805,6.029,13.3015,4.60075,2470.73,2023-5-19T11:44:37Z
2023-05-19T09:45:28Z,42.805,6.029,13.3014,4.60076,2470.67,2023-5-19T11:47:40Z
2023-05-19T09:48:31Z,42.805,6.029,13.3017,4.60075,2470.707,2023-5-19T11:50:43Z
2023-05-19T09:51:34Z,42.805,6.029,13.3020,4.60075,2470.67,2023-5-19T11:53:46Z
2023-05-19T09:54:37Z,42.805,6.029,13.3019,4.60075,2470.693,2023-5-19T11:56:49Z
2023-05-19T09:57:40Z,42.805,6.029,13.3017,4.60074,2470.646,2023-5-19T11:59:52Z
2023-05-19T10:00:43Z,42.805,6.029,13.3021,4.60074,2470.67,2023-5-19T12:02:55Z
2023-05-19T10:03:47Z,42.805,6.029,13.3019,4.60079,2470.67,2023-5-19T12:05:58Z
2023-05-19T10:06:50Z,42.805,6.029,13.3020,4.60074,2470.67,2023-5-19T12:09:01Z
2023-05-19T10:09:53Z,42.805,6.029,13.3019,4.60074,2470.637,2023-5-19T12:12:05Z
2023-05-19T10:12:56Z,42.805,6.029,13.3015,4.60074,2470.661,2023-5-19T12:15:08Z
2023-05-19T10:15:59Z,42.805,6.029,13.3019,4.60073,2470.633,2023-5-19T12:18:11Z
2023-05-19T10:19:02Z,42.805,6.029,13.3017,4.60074,2470.646,2023-5-19T12:21:14Z
2023-05-19T10:22:05Z,42.805,6.029,13.3016,4.60074,2470.661,2023-5-19T12:24:17Z
2023-05-19T10:25:08Z,42.805,6.029,13.3015,4.60075,2470.661,2023-5-19T12:27:20Z
2023-05-19T10:28:11Z,42.805,6.029,13.3020,4.60077,2470.646,2023-5-19T12:30:23Z
2023-05-19T10:31:16Z,42.805,6.029,13.3018,4.60076,2470.661,2023-5-19T12:33:28Z
2023-05-19T10:34:19Z,42.805,6.029,13.3020,4.60074,2470.646,2023-5-19T12:36:31Z
2023-05-19T10:37:22Z,42.805,6.029,13.3019,4.60077,2470.637,2023-5-19T12:39:34Z
2023-05-19T10:40:25Z,42.805,6.029,13.3017,4.60077,2470.637,2023-5-19T12:42:37Z
2023-05-19T10:43:28Z,42.805,6.029,13.3020,4.60075,2470.646,2023-5-19T12:45:40Z
2023-05-19T10:46:32Z,42.805,6.029,13.3017,4.60076,2470.6,2023-5-19T12:48:43Z
2023-05-19T10:49:35Z,42.805,6.029,13.3019,4.60074,2470.646,2023-5-19T12:51:46Z
2023-05-19T10:52:38Z,42.805,6.029,13.3018,4.60074,2470.624,2023-5-19T12:54:50Z
2023-05-19T10:55:41Z,42.805,6.029,13.3019,4.60074,2470.67,2023-5-19T12:57:53Z
2023-05-19T10:58:44Z,42.805,6.029,13.3019,4.60075,2470.646,2023-5-19T13:00:56Z
2023-05-19T11:01:47Z,42.805,6.029,13.3018,4.60076,2470.624,2023-5-19T13:03:59Z
2023-05-19T11:04:50Z,42.805,6.029,13.3020,4.60074,2470.6,2023-5-19T13:07:02Z
2023-05-19T11:07:53Z,42.805,6.029,13.3021,4.60076,2470.6,2023-5-19T13:10:05Z
2023-05-19T11:10:56Z,42.805,6.029,13.3015,4.60077,2470.637,2023-5-19T13:13:08Z
2023-05-19T11:13:59Z,42.805,6.029,13.3021,4.60076,2470.646,2023-5-19T13:16:11Z
2023-05-19T11:17:02Z,42.805,6.029,13.3021,4.60074,2470.637,2023-5-19T13:19:14Z
2023-05-19T11:20:06Z,42.805,6.029,13.3019,4.60077,2470.67,2023-5-19T13:22:17Z
2023-05-19T11:23:09Z,42.805,6.029,13.3017,4.60074,2470.624,2023-5-19T13:25:20Z
2023-05-19T11:26:12Z,42.805,6.029,13.3019,4.60074,2470.637,2023-5-19T13:28:24Z
2023-05-19T11:29:15Z,42.805,6.029,13.3021,4.60074,2470.637,2023-5-19T13:31:27Z
2023-05-19T11:32:18Z,42.805,6.029,13.3024,4.60074,2470.646,2023-5-19T13:34:30Z
2023-05-19T11:35:21Z,42.805,6.029,13.3016,4.60080,2470.624,2023-5-19T13:37:33Z
2023-05-19T11:38:24Z,42.805,6.029,13.3021,4.60076,2470.637,2023-5-19T13:40:36Z
2023-05-19T11:41:27Z,42.805,6.029,13.3019,4.60074,2470.591,2023-5-19T13:43:39Z
2023-05-19T11:44:30Z,42.805,6.029,13.3019,4.60074,2470.624,2023-5-19T13:46:42Z
2023-05-19T11:47:33Z,42.805,6.029,13.3019,4.60075,2470.6,2023-5-19T13:49:45Z
2023-05-19T11:50:36Z,42.805,6.029,13.3016,4.60075,2470.614,2023-5-19T13:52:48Z
2023-05-19T11:53:39Z,42.805,6.029,13.3023,4.60076,2470.591,2023-5-19T13:55:51Z
2023-05-19T11:56:43Z,42.805,6.029,13.3017,4.60077,2470.6,2023-5-19T13:58:54Z
2023-05-19T11:59:46Z,42.805,6.029,13.3018,4.60077,2470.591,2023-5-19T14:01:57Z
2023-05-19T12:02:49Z,42.805,6.029,13.3019,4.60075,2470.6,2023-5-19T14:05:01Z
2023-05-19T12:05:52Z,42.805,6.029,13.3018,4.60075,2470.577,2023-5-19T14:08:04Z
2023-05-19T12:08:55Z,42.805,6.029,13.3011,4.60074,2470.577,2023-5-19T14:11:07Z
2023-05-19T12:11:58Z,42.805,6.029,13.3017,4.60078,2470.624,2023-5-19T14:14:10Z
2023-05-19T12:15:01Z,42.805,6.029,13.3022,4.60077,2470.6,2023-5-19T14:17:13Z
2023-05-19T12:18:04Z,42.805,6.029,13.3020,4.60074,2470.563,2023-5-19T14:20:16Z
2023-05-19T12:21:07Z,42.805,6.029,13.3021,4.60077,2470.591,2023-5-19T14:23:19Z
2023-05-19T12:24:10Z,42.805,6.029,13.3020,4.60076,2470.6,2023-5-19T14:26:22Z
2023-05-19T12:27:13Z,42.805,6.029,13.3015,4.60076,2470.577,2023-5-19T14:29:25Z
2023-05-19T12:30:16Z,42.805,6.029,13.3021,4.60074,2470.637,2023-5-19T14:32:28Z
2023-05-19T12:33:20Z,42.805,6.029,13.3019,4.60077,2470.591,2023-5-19T14:35:31Z
2023-05-19T12:36:23Z,42.805,6.029,13.3021,4.60075,2470.591,2023-5-19T14:38:35Z
2023-05-19T12:39:26Z,42.805,6.029,13.3019,4.60074,2470.577,2023-5-19T14:41:38Z
2023-05-19T12:42:29Z,42.805,6.029,13.3018,4.60077,2470.6,2023-5-19T14:44:41Z
2023-05-19T12:45:32Z,42.805,6.029,13.3020,4.60077,2470.6,2023-5-19T14:47:44Z
2023-05-19T12:48:35Z,42.805,6.029,13.3015,4.60078,2470.577,2023-5-19T14:50:47Z
2023-05-19T12:51:38Z,42.805,6.029,13.3018,4.60078,2470.6,2023-5-19T14:53:50Z
2023-05-19T12:54:41Z,42.805,6.029,13.3021,4.60076,2470.577,2023-5-19T14:56:53Z
2023-05-19T12:57:44Z,42.805,6.029,13.3020,4.60077,2470.6,2023-5-19T14:59:56Z
2023-05-19T13:00:47Z,42.805,6.029,13.3016,4.60077,2470.577,2023-5-19T15:02:59Z
2023-05-19T13:03:50Z,42.805,6.029,13.3023,4.60078,2470.591,2023-5-19T15:06:02Z
2023-05-19T13:06:53Z,42.805,6.029,13.3018,4.60074,2470.591,2023-5-19T15:09:05Z
2023-05-19T13:09:57Z,42.805,6.029,13.3015,4.60074,2470.553,2023-5-19T15:12:08Z
2023-05-19T13:13:00Z,42.805,6.029,13.3025,4.60076,2470.577,2023-5-19T15:15:11Z
2023-05-19T13:16:03Z,42.805,6.029,13.3022,4.60076,2470.624,2023-5-19T15:18:15Z
2023-05-19T13:19:06Z,42.805,6.029,13.3019,4.60077,2470.567,2023-5-19T15:21:18Z
2023-05-19T13:22:09Z,42.805,6.029,13.3022,4.60081,2470.614,2023-5-19T15:24:21Z
2023-05-19T13:25:12Z,42.805,6.029,13.3022,4.60076,2470.553,2023-5-19T15:27:24Z
2023-05-19T13:28:15Z,42.805,6.029,13.3019,4.60075,2470.6,2023-5-19T15:30:27Z
2023-05-19T13:31:18Z,42.805,6.029,13.3019,4.60077,2470.553,2023-5-19T15:33:30Z
2023-05-19T13:34:21Z,42.805,6.029,13.3021,4.60074,2470.577,2023-5-19T15:36:33Z
2023-05-19T13:37:24Z,42.805,6.029,13.3014,4.60077,2470.553,2023-5-19T15:39:36Z
2023-05-19T13:40:27Z,42.805,6.029,13.3019,4.60076,2470.577,2023-5-19T15:42:39Z
2023-05-19T13:43:30Z,42.805,6.029,13.3019,4.60075,2470.567,2023-5-19T15:45:42Z
2023-05-19T13:46:34Z,42.805,6.029,13.3021,4.60075,2470.553,2023-5-19T15:48:45Z
2023-05-19T13:49:37Z,42.805,6.029,13.3020,4.60074,2470.577,2023-5-19T15:51:48Z
2023-05-19T13:52:40Z,42.805,6.029,13.3023,4.60079,2470.577,2023-5-19T15:54:52Z
2023-05-19T13:55:43Z,42.805,6.029,13.3016,4.60075,2470.591,2023-5-19T15:57:55Z
2023-05-19T13:58:46Z,42.805,6.029,13.3020,4.60078,2470.6,2023-5-19T16:00:58Z
2023-05-19T14:01:49Z,42.805,6.029,13.3021,4.60074,2470.577,2023-5-19T16:04:01Z
2023-05-19T14:04:52Z,42.805,6.029,13.3023,4.60076,2470.614,2023-5-19T16:07:04Z
2023-05-19T14:07:55Z,42.805,6.029,13.3015,4.60077,2470.6,2023-5-19T16:10:07Z
2023-05-19T14:10:58Z,42.805,6.029,13.3016,4.60073,2470.591,2023-5-19T16:13:10Z
2023-05-19T14:14:01Z,42.805,6.029,13.3020,4.60073,2470.577,2023-5-19T16:16:13Z
2023-05-19T14:17:04Z,42.805,6.029,13.3019,4.60073,2470.553,2023-5-19T16:19:16Z
2023-05-19T14:20:07Z,42.805,6.029,13.3019,4.60074,2470.577,2023-5-19T16:22:19Z
2023-05-19T14:23:11Z,42.805,6.029,13.3018,4.60073,2470.591,2023-5-19T16:25:22Z
2023-05-19T14:26:14Z,42.805,6.029,13.3019,4.60073,2470.591,2023-5-19T16:28:25Z
2023-05-19T14:29:17Z,42.805,6.029,13.3017,4.60074,2470.563,2023-5-19T16:31:29Z
2023-05-19T14:32:19Z,42.805,6.029,13.3018,4.60074,2470.591,2023-5-19T16:34:31Z
2023-05-19T14:35:22Z,42.805,6.029,13.3021,4.60074,2470.553,2023-5-19T16:37:34Z
2023-05-19T14:38:25Z,42.805,6.029,13.3019,4.60072,2470.577,2023-5-19T16:40:37Z
2023-05-19T14:41:28Z,42.805,6.029,13.3018,4.60073,2470.591,2023-5-19T16:43:40Z
2023-05-19T14:44:31Z,42.805,6.029,13.3021,4.60074,2470.591,2023-5-19T16:46:43Z
2023-05-19T14:47:34Z,42.805,6.029,13.3019,4.60074,2470.591,2023-5-19T16:49:46Z
2023-05-19T14:50:37Z,42.805,6.029,13.3019,4.60075,2470.624,2023-5-19T16:52:49Z
2023-05-19T14:53:40Z,42.805,6.029,13.3018,4.60073,2470.591,2023-5-19T16:55:52Z
2023-05-19T14:56:43Z,42.805,6.029,13.3016,4.60073,2470.614,2023-5-19T16:58:55Z
2023-05-19T14:59:47Z,42.805,6.029,13.3017,4.60073,2470.6,2023-5-19T17:01:58Z
2023-05-19T15:02:50Z,42.805,6.029,13.3019,4.60074,2470.6,2023-5-19T17:05:02Z
2023-05-19T15:05:53Z,42.805,6.029,13.3018,4.60073,2470.624,2023-5-19T17:08:05Z
2023-05-19T15:08:56Z,42.805,6.029,13.3023,4.60074,2470.6,2023-5-19T17:11:08Z
2023-05-19T15:11:59Z,42.805,6.029,13.3021,4.60073,2470.637,2023-5-19T17:14:11Z
2023-05-19T15:15:02Z,42.805,6.029,13.3021,4.60074,2470.624,2023-5-19T17:17:14Z